This is the latest recevied weather packets stored in our database for station/object DG9MHV-10. If no packets are shown the sender has not sent any weather packets the latest 1 day(s).
| Time | Temp. | Humidity | Pressure | Rain* | Wind** | Luminosity | Snow |
|---|---|---|---|---|---|---|---|
| 1777747266 | 17.78° C | 100% | 1017.5 hPa | - | - | - | - |
| 1777746366 | 18.89° C | 100% | 1017.5 hPa | - | - | - | - |
| 1777745466 | 20° C | 100% | 1017.3 hPa | - | - | - | - |
| 1777744566 | 20.56° C | 97% | 1017.3 hPa | - | - | - | - |
| 1777743666 | 21.67° C | 75% | 1017.5 hPa | - | - | - | - |
| 1777742765 | 22.22° C | 69% | 1017.5 hPa | - | - | - | - |
| 1777741865 | 22.22° C | 67% | 1017.5 hPa | - | - | - | - |
| 1777740965 | 22.78° C | 66% | 1017.5 hPa | - | - | - | - |
| 1777740065 | 23.33° C | 64% | 1017.6 hPa | - | - | - | - |
| 1777739165 | 23.33° C | 58% | 1017.8 hPa | - | - | - | - |
| 1777737375 | 23.89° C | 59% | 1018.1 hPa | - | - | - | - |
| 1777736475 | 24.44° C | 55% | 1018.3 hPa | - | - | - | - |
| 1777735575 | 24.44° C | 51% | 1018.4 hPa | - | - | - | - |
| 1777734675 | 25° C | 48% | 1018.5 hPa | - | - | - | - |
| 1777733775 | 25.56° C | 53% | 1018.7 hPa | - | - | - | - |
| 1777732875 | 25.56° C | 51% | 1018.7 hPa | - | - | - | - |
| 1777731975 | 25.56° C | 47% | 1019 hPa | - | - | - | - |
| 1777731075 | 26.11° C | 47% | 1019.2 hPa | - | - | - | - |
| 1777730175 | 26.67° C | 48% | 1019.3 hPa | - | - | - | - |
| 1777729274 | 26.11° C | 53% | 1019.5 hPa | - | - | - | - |
| 1777728374 | 26.11° C | 47% | 1019.8 hPa | - | - | - | - |
| 1777727474 | 26.11° C | 52% | 1020 hPa | - | - | - | - |
| 1777726574 | 26.11° C | 50% | 1020.1 hPa | - | - | - | - |
| 1777725674 | 26.11° C | 62% | 1020.4 hPa | - | - | - | - |
| 1777724774 | 25.56° C | 54% | 1020.5 hPa | - | - | - | - |
* Rain since midnight (hover to see other rain measurements)
** Current wind speed in m/s (hover to see current wind gust speed)